• Em Portugal
  • Lista de países
  • Para 7 dias
  • Temperatura da água
  • Mapas de satélite
  • Mapa do tempo
  • Widgets de tempo
  • user-avatar
    Iniciar Sessão

    Previsão horária em Samsun

    Hoje, 22 Setembro, Sábado

    Tempo Temperatura Precipitação Vento Pressão Humidade
    00:00 +19°C° 0 mm 1 m/s 752 mmHg 90%
    01:00 +19°C° 0 mm 1 m/s 752 mmHg 89%
    02:00 +19°C° 0 mm 1 m/s 752 mmHg 89%
    03:00 +18°C° 0 mm 1 m/s 752 mmHg 88%
    04:00 +18°C° 0 mm 1 m/s 752 mmHg 88%
    05:00 +18°C° 0 mm 1 m/s 752 mmHg 88%
    06:00 +20°C° 0 mm 1 m/s 752 mmHg 80%
    07:00 +22°C° 0 mm 1 m/s 752 mmHg 72%
    08:00 +25°C° 0 mm 1 m/s 752 mmHg 64%
    09:00 +26°C° 0 mm 1 m/s 752 mmHg 59%
    10:00 +27°C° 0 mm 1 m/s 752 mmHg 54%
    11:00 +29°C° 0 mm 2 m/s 752 mmHg 48%
    12:00 +29°C° 0 mm 2 m/s 752 mmHg 50%
    13:00 +29°C° 0 mm 2 m/s 752 mmHg 51%
    14:00 +29°C° 0 mm 3 m/s 751 mmHg 52%
    15:00 +27°C° 0 mm 2 m/s 751 mmHg 60%
    16:00 +26°C° 0 mm 2 m/s 751 mmHg 68%
    17:00 +24°C° 0 mm 2 m/s 751 mmHg 76%
    18:00 +23°C° 0 mm 1 m/s 752 mmHg 82%
    19:00 +22°C° 0 mm 1 m/s 752 mmHg 87%
    20:00 +21°C° 0 mm 1 m/s 752 mmHg 93%
    21:00 +21°C° 0 mm 1 m/s 752 mmHg 93%
    22:00 +20°C° 0 mm 1 m/s 752 mmHg 92%
    23:00 +20°C° 0 mm 1 m/s 752 mmHg 92%

    Amanhã, 23 Setembro, Domingo

    Tempo Temperatura Precipitação Vento Pressão Humidade
    00:00 +20°C° 0 mm 1 m/s 752 mmHg 92%
    01:00 +20°C° 0 mm 1 m/s 752 mmHg 91%
    02:00 +20°C° 0 mm 1 m/s 752 mmHg 90%
    03:00 +19°C° 0 mm 1 m/s 753 mmHg 90%
    04:00 +18°C° 0 mm 2 m/s 753 mmHg 89%
    05:00 +18°C° 0 mm 2 m/s 753 mmHg 88%
    06:00 +21°C° 0 mm 1 m/s 753 mmHg 79%
    07:00 +23°C° 0 mm 1 m/s 753 mmHg 70%
    08:00 +25°C° 0 mm 1 m/s 753 mmHg 61%
    09:00 +26°C° 0 mm 2 m/s 753 mmHg 54%
    10:00 +28°C° 0 mm 2 m/s 754 mmHg 46%
    11:00 +29°C° 0 mm 2 m/s 754 mmHg 39%
    12:00 +29°C° 0 mm 2 m/s 754 mmHg 39%
    13:00 +29°C° 0 mm 3 m/s 753 mmHg 40%
    14:00 +29°C° 0 mm 3 m/s 753 mmHg 40%
    15:00 +28°C° 0 mm 3 m/s 754 mmHg 48%
    16:00 +26°C° 0 mm 2 m/s 754 mmHg 56%
    17:00 +24°C° 0 mm 2 m/s 754 mmHg 65%
    18:00 +23°C° 0 mm 2 m/s 754 mmHg 70%
    19:00 +20°C° 0 mm 2 m/s 755 mmHg 75%
    20:00 +19°C° 0 mm 2 m/s 755 mmHg 80%
    21:00 +19°C° 0 mm 2 m/s 755 mmHg 78%
    22:00 +19°C° 0 mm 2 m/s 755 mmHg 77%
    23:00 +18°C° 0 mm 2 m/s 755 mmHg 75%

    Depois de amanhã, 24 Setembro, Segunda-feira

    Tempo Temperatura Precipitação Vento Pressão Humidade
    00:00 +18°C° 0 mm 2 m/s 755 mmHg 72%
    01:00 +18°C° 0 mm 2 m/s 755 mmHg 69%
    02:00 +18°C° 0 mm 2 m/s 755 mmHg 66%
    03:00 +18°C° 0 mm 2 m/s 755 mmHg 64%
    04:00 +18°C° 0 mm 2 m/s 754 mmHg 62%
    05:00 +18°C° 0 mm 2 m/s 754 mmHg 60%
    06:00 +20°C° 0 mm 2 m/s 754 mmHg 53%
    07:00 +23°C° 0 mm 2 m/s 754 mmHg 47%
    08:00 +25°C° 0 mm 1 m/s 754 mmHg 41%
    09:00 +27°C° 0 mm 2 m/s 754 mmHg 36%
    10:00 +29°C° 0 mm 2 m/s 753 mmHg 31%
    11:00 +31°C° 0 mm 3 m/s 753 mmHg 27%
    12:00 +31°C° 0 mm 3 m/s 752 mmHg 28%
    13:00 +32°C° 0 mm 4 m/s 751 mmHg 28%
    14:00 +33°C° 0 mm 4 m/s 751 mmHg 29%
    15:00 +30°C° 0 mm 4 m/s 750 mmHg 36%
    16:00 +28°C° 0 mm 4 m/s 750 mmHg 43%
    17:00 +27°C° 0 mm 4 m/s 750 mmHg 49%
    18:00 +26°C° 0 mm 3 m/s 750 mmHg 49%
    19:00 +25°C° 0 mm 3 m/s 750 mmHg 48%
    20:00 +24°C° 0 mm 3 m/s 750 mmHg 48%
    21:00 +24°C° 0 mm 3 m/s 750 mmHg 45%
    22:00 +24°C° 0 mm 3 m/s 750 mmHg 41%
    23:00 +24°C° 0 mm 2 m/s 749 mmHg 38%

    25 Setembro, Terça-feira

    Tempo Temperatura Precipitação Vento Pressão Humidade
    00:00 +24°C° 0 mm 2 m/s 749 mmHg 37%
    01:00 +23°C° 0 mm 2 m/s 749 mmHg 37%
    02:00 +23°C° 0 mm 2 m/s 749 mmHg 36%
    03:00 +23°C° 0 mm 2 m/s 749 mmHg 38%
    04:00 +21°C° 0 mm 2 m/s 750 mmHg 41%
    05:00 +21°C° 0 mm 3 m/s 750 mmHg 43%
    06:00 +22°C° 0 mm 3 m/s 750 mmHg 47%
    07:00 +25°C° 0 mm 4 m/s 750 mmHg 50%
    08:00 +26°C° 0 mm 5 m/s 751 mmHg 53%
    09:00 +27°C° 0 mm 5 m/s 751 mmHg 55%
    10:00 +27°C° 0 mm 6 m/s 751 mmHg 56%
    11:00 +28°C° 0 mm 6 m/s 751 mmHg 58%
    12:00 +26°C° 0.1 mm 6 m/s 751 mmHg 67%
    13:00 +24°C° 0.1 mm 6 m/s 751 mmHg 76%
    14:00 +22°C° 0.1 mm 6 m/s 751 mmHg 85%
    15:00 +21°C° 0.3 mm 6 m/s 752 mmHg 88%
    16:00 +20°C° 0.3 mm 6 m/s 752 mmHg 90%
    17:00 +19°C° 0.3 mm 6 m/s 753 mmHg 92%
    18:00 +19°C° 0.3 mm 6 m/s 754 mmHg 92%
    19:00 +17°C° 0.3 mm 6 m/s 754 mmHg 93%
    20:00 +17°C° 0.3 mm 6 m/s 755 mmHg 93%
    21:00 +16°C° 0.4 mm 6 m/s 755 mmHg 93%
    22:00 +16°C° 0.4 mm 5 m/s 755 mmHg 93%
    23:00 +16°C° 0.4 mm 5 m/s 755 mmHg 92%

    26 Setembro, Quarta-feira

    Tempo Temperatura Precipitação Vento Pressão Humidade
    00:00 +15°C° 0.5 mm 5 m/s 755 mmHg 92%
    01:00 +15°C° 0.5 mm 5 m/s 755 mmHg 92%
    02:00 +15°C° 0.5 mm 6 m/s 755 mmHg 92%
    03:00 +14°C° 0.5 mm 5 m/s 756 mmHg 92%
    04:00 +14°C° 0.5 mm 5 m/s 756 mmHg 92%
    05:00 +14°C° 0.5 mm 5 m/s 756 mmHg 92%
    06:00 +14°C° 0.9 mm 5 m/s 756 mmHg 92%
    07:00 +14°C° 0.9 mm 5 m/s 757 mmHg 91%
    08:00 +14°C° 0.9 mm 5 m/s 757 mmHg 91%
    09:00 +14°C° 0.9 mm 5 m/s 757 mmHg 90%
    10:00 +14°C° 0.9 mm 5 m/s 757 mmHg 90%
    11:00 +14°C° 0.9 mm 4 m/s 757 mmHg 89%
    12:00 +14°C° 0.6 mm 4 m/s 757 mmHg 89%
    13:00 +14°C° 0.6 mm 4 m/s 757 mmHg 89%
    14:00 +14°C° 0.6 mm 4 m/s 757 mmHg 89%
    15:00 +14°C° 0.8 mm 4 m/s 758 mmHg 90%
    16:00 +14°C° 0.8 mm 4 m/s 758 mmHg 91%
    17:00 +13°C° 0.8 mm 4 m/s 758 mmHg 92%
    18:00 +13°C° 0.7 mm 4 m/s 758 mmHg 92%
    19:00 +14°C° 0.7 mm 4 m/s 758 mmHg 92%
    20:00 +14°C° 0.7 mm 4 m/s 759 mmHg 92%
    21:00 +14°C° 0.5 mm 4 m/s 759 mmHg 92%
    22:00 +14°C° 0.5 mm 4 m/s 759 mmHg 91%
    23:00 +14°C° 0.5 mm 4 m/s 759 mmHg 91%

    27 Setembro, Quinta-feira

    Tempo Temperatura Precipitação Vento Pressão Humidade
    00:00 +14°C° 0.5 mm 4 m/s 758 mmHg 91%
    01:00 +14°C° 0.5 mm 5 m/s 758 mmHg 91%
    02:00 +14°C° 0.5 mm 5 m/s 758 mmHg 90%
    03:00 +14°C° 0.3 mm 5 m/s 758 mmHg 89%
    04:00 +14°C° 0.3 mm 4 m/s 758 mmHg 87%
    05:00 +14°C° 0.3 mm 4 m/s 758 mmHg 86%
    06:00 +14°C° 0 mm 4 m/s 758 mmHg 82%
    07:00 +15°C° 0 mm 4 m/s 758 mmHg 78%
    08:00 +15°C° 0 mm 4 m/s 758 mmHg 74%
    09:00 +17°C° 0 mm 4 m/s 758 mmHg 71%
    10:00 +17°C° 0 mm 4 m/s 758 mmHg 67%
    11:00 +18°C° 0 mm 3 m/s 758 mmHg 63%
    12:00 +18°C° 0 mm 4 m/s 757 mmHg 62%
    13:00 +19°C° 0 mm 4 m/s 757 mmHg 60%
    14:00 +19°C° 0 mm 4 m/s 757 mmHg 58%
    15:00 +18°C° 0 mm 4 m/s 757 mmHg 62%
    16:00 +17°C° 0 mm 3 m/s 756 mmHg 66%
    17:00 +16°C° 0 mm 3 m/s 756 mmHg 69%
    18:00 +15°C° 0 mm 2 m/s 756 mmHg 73%
    19:00 +14°C° 0 mm 2 m/s 757 mmHg 76%
    20:00 +14°C° 0 mm 1 m/s 757 mmHg 80%
    21:00 +13°C° 0 mm 1 m/s 756 mmHg 81%
    22:00 +13°C° 0 mm 1 m/s 756 mmHg 83%
    23:00 +13°C° 0 mm 1 m/s 756 mmHg 84%
    Mostrar mais